[[{"header":{"parameterUnit":"m.s-1","parameterCategory":1,"la1":30.2991,"la2":30.254,"lo1":-89.0895,"lo2":-89.0444,"dy":0.0017,"dx":0.0017,"nx":28,"ny":28,"refTime":"2024-05-24T03:00:00:Z","depth":0,"parameterNumber":2,"parameterNumberName":"U-component_of_WINDS"},"data":[0,0,0,0,0,0,0,0,0,0,0,0,0,0,0,0,0,0,0,0,0,0,0,0,0,0,0,0,0,0,0,0,0,0,0,0,0,0,0,0,0,0,0,0,0,0,0,0,0,0,0,0,0,0,0,0,0,0,-0.1805,-0.1805,0,-0.1809,-0.181,-0.181,-0.1806,-0.1805,-0.1805,-0.1805,-0.181,-0.181,-0.181,0,0,0,0,0,0,0,0,0,0,0,0,0,-0.1795,-0.1795,-0.1805,-0.1805,-0.1805,-0.1809,-0.181,-0.181,-0.1806,-0.1805,-0.1805,-0.1805,-0.181,-0.181,-0.181,0,0,0,0,0,0,0,0,0,0,0,0,0,-0.1799,-0.1795,-0.1805,-0.1804,-0.1804,-0.1809,-0.181,-0.181,-0.1806,-0.1805,-0.1805,-0.1805,-0.181,-0.181,-0.181,-0.1818,0,0,-0.1812,-0.1812,0,0,0,0,0,0,0,0,-0.1799,-0.1799,-0.1804,-0.1804,-0.1804,-0.1807,-0.1808,-0.1812,-0.1806,-0.1805,-0.1805,-0.1805,-0.1809,-0.1809,-0.1811,-0.1818,-0.1818,-0.1812,-0.1812,-0.1812,-0.1812,0,0,0,0,0,0,0,-0.1799,-0.1799,-0.1807,-0.1804,-0.1804,-0.1803,-0.1804,-0.1808,-0.1808,-0.1805,-0.1805,-0.1805,-0.1809,-0.181,-0.1811,-0.1818,-0.1812,-0.1812,-0.1812,-0.1812,-0.1833,-0.1834,0,0,0,0,0,0,-0.1798,-0.1799,-0.1807,-0.1807,-0.1801,-0.1804,-0.1804,-0.1806,-0.1808,-0.1808,-0.1805,-0.1805,-0.181,-0.181,-0.1811,-0.1821,-0.1812,-0.1813,-0.1813,-0.1833,-0.1833,-0.1834,0,0,0,0,0,0,-0.1798,-0.1799,-0.1807,-0.1803,-0.1804,-0.1804,-0.1806,-0.1806,-0.1808,-0.1809,-0.1809,-0.1807,-0.181,-0.181,-0.1816,-0.1821,-0.1813,-0.1813,-0.1833,-0.1833,-0.1833,-0.184,0,0,0,0,0,0,-0.1798,-0.1799,-0.1801,-0.1803,-0.1804,-0.1812,-0.1807,-0.1807,-0.1808,-0.1808,-0.181,-0.181,-0.181,-0.1816,-0.1817,-0.1821,-0.1813,-0.1832,-0.1833,-0.1833,-0.1839,-0.184,-0.1841,0,0,0,0,0,-0.1797,-0.1803,-0.1802,-0.1803,-0.1807,-0.1812,-0.1812,-0.1812,-0.1809,-0.1812,-0.1812,-0.181,-0.182,-0.1816,-0.1818,-0.1822,-0.1832,-0.1833,-0.1833,-0.1839,-0.184,-0.1841,0,0,0,0,0,0,-0.1802,-0.1803,-0.1802,-0.1808,-0.181,-0.1811,-0.1815,-0.1813,-0.1816,-0.1815,-0.1814,-0.1815,-0.1821,-0.1822,-0.1818,-0.183,-0.1826,-0.1827,-0.1829,-0.1831,-0.1832,-0.1832,-0.1814,0,0,0,0,0,-0.1803,-0.1807,-0.1808,-0.1813,-0.1814,-0.1814,-0.1816,-0.1815,-0.1818,-0.1818,-0.1819,-0.1822,-0.1826,-0.1828,-0.1832,-0.1839,-0.184,-0.1843,-0.1844,-0.1845,-0.1846,-0.1851,-0.1853,-0.1836,-0.1836,-0.1836,0,0,-0.1807,-0.1808,-0.181,-0.1814,-0.1815,-0.1819,-0.1815,-0.1819,-0.1822,-0.1819,-0.1825,-0.1826,-0.1829,-0.1836,-0.1839,-0.1837,-0.1851,-0.1846,-0.1847,-0.1847,-0.1852,-0.1854,-0.1855,-0.1836,-0.1836,-0.1836,0,0,-0.1815,-0.1816,-0.1821,-0.1823,-0.1825,-0.1825,-0.1826,-0.1828,-0.1829,-0.1835,-0.1833,-0.1837,-0.1843,-0.1846,-0.1847,-0.1858,-0.1856,-0.1859,-0.1865,-0.187,-0.1872,-0.1873,-0.1878,-0.1879,-0.186,-0.186,-0.186,0,-0.1819,-0.1825,-0.1823,-0.1828,-0.183,-0.1828,-0.1833,-0.1835,-0.1839,-0.1841,-0.1838,-0.1847,-0.1848,-0.1856,-0.1859,-0.186,-0.1862,-0.1859,-0.1871,-0.1873,-0.1874,-0.1878,-0.188,-0.186,-0.186,-0.186,-0.186,0,-0.183,-0.1834,-0.1838,-0.1842,-0.1844,-0.1849,-0.1849,-0.1852,-0.1852,-0.1852,-0.1859,-0.1861,-0.1865,-0.1867,-0.1866,-0.1875,-0.1874,-0.1871,-0.1867,-0.1876,-0.188,-0.1882,-0.1861,-0.1861,-0.1861,-0.1861,0,0,-0.184,-0.1844,-0.1846,-0.1848,-0.1851,-0.1854,-0.186,-0.1864,-0.1867,-0.187,-0.1875,-0.1881,-0.1879,-0.1881,-0.188,-0.1885,-0.1894,-0.1882,-0.1882,-0.1885,-0.1906,-0.1909,-0.1911,-0.1893,-0.1893,-0.1894,-0.1906,0,-0.185,-0.1859,-0.1858,-0.1867,-0.1872,-0.187,-0.1875,-0.1877,-0.1878,-0.1883,-0.1884,-0.1888,-0.1885,-0.1886,-0.1891,-0.1892,-0.1899,-0.1891,-0.1899,-0.1899,-0.1899,-0.1913,-0.1915,-0.1927,-0.1908,-0.1908,-0.1908,0,-0.1861,-0.1865,-0.1874,-0.1878,-0.1879,-0.1884,-0.1888,-0.1892,-0.1896,-0.1896,-0.1899,-0.1898,-0.1905,-0.19,-0.1909,-0.1904,-0.1907,-0.1908,-0.1909,-0.191,-0.1904,-0.1915,-0.193,-0.1932,-0.1911,-0.191,-0.191,0,-0.1869,-0.1876,-0.1883,-0.1885,-0.1889,-0.1892,-0.1894,-0.1897,-0.19,-0.1904,-0.1907,-0.1911,-0.1914,-0.1918,-0.1919,-0.1915,-0.1928,-0.1923,-0.193,-0.193,-0.1933,-0.1933,-0.195,-0.1934,-0.1934,-0.1933,-0.1933,0,-0.188,-0.1886,-0.1887,-0.1891,-0.1898,-0.1898,-0.1905,-0.1907,-0.191,-0.1915,-0.1913,-0.1918,-0.1919,-0.1924,-0.1924,-0.1933,-0.1934,-0.1935,-0.1935,-0.1935,-0.1935,-0.1938,-0.1937,-0.1934,-0.1934,-0.1934,-0.1934,0,-0.189,-0.1891,-0.1898,-0.1902,-0.1903,-0.1908,-0.1911,-0.1915,-0.1917,-0.1923,-0.1925,-0.1927,-0.1933,-0.1934,-0.1941,-0.1941,-0.1952,-0.195,-0.195,-0.1951,-0.1957,-0.1957,-0.1977,-0.198,-0.1961,-0.1961,-0.1962,0,-0.1897,-0.1902,-0.1906,-0.1909,-0.1911,-0.1916,-0.192,-0.192,-0.1924,-0.1929,-0.1933,-0.1939,-0.1944,-0.1954,-0.1956,-0.1962,-0.1962,-0.1968,-0.1962,-0.1963,-0.1963,-0.1963,-0.1964,-0.1969,-0.197,-0.197,-0.197,0,-0.1909,-0.191,-0.1915,-0.192,-0.1924,-0.1928,-0.1932,-0.1935,-0.1936,-0.194,-0.1947,-0.1951,-0.1958,-0.1965,-0.1971,-0.1973,-0.1972,-0.1972,-0.1974,-0.1975,-0.1975,-0.1976,-0.1954,-0.1971,-0.1971,-0.1971,-0.1971,-0.1971,-0.1919,-0.1923,-0.1927,-0.1933,-0.1936,-0.194,-0.1945,-0.1947,-0.1952,-0.1959,-0.1959,-0.1966,-0.1971,-0.1979,-0.1981,-0.1988,-0.1986,-0.1988,-0.1989,-0.199,-0.1991,-0.1973,-0.1989,-0.1989,-0.1989,-0.1988,-0.1988,0,-0.1932,-0.1935,-0.194,-0.1946,-0.1951,-0.1949,-0.1954,-0.1958,-0.1964,-0.1969,-0.1974,-0.1982,-0.1988,-0.1992,-0.1998,-0.2003,-0.2003,-0.2005,-0.2005,-0.2006,-0.1992,-0.199,-0.2005,-0.2005,-0.2005,-0.2005,-0.2005,-0.2005,-0.194,-0.1948,-0.1949,-0.1959,-0.1961,-0.1969,-0.1972,-0.1976,-0.1979,-0.1988,-0.1994,-0.1996,-0.2,-0.2007,-0.2014,-0.2014,-0.2017,-0.202,-0.2021,-0.2008,-0.2006,-0.2005,-0.2003,-0.202,-0.202,-0.2034,-0.2034,-0.2034]},{"header":{"parameterUnit":"m.s-1","parameterCategory":1,"la1":30.2991,"la2":30.254,"lo1":-89.0895,"lo2":-89.0444,"dy":0.0017,"dx":0.0017,"nx":28,"ny":28,"refTime":"2024-05-24T03:00:00:Z","depth":0,"parameterNumber":3,"parameterNumberName":"V-component_of_WINDS"},"data":[0,0,0,0,0,0,0,0,0,0,0,0,0,0,0,0,0,0,0,0,0,0,0,0,0,0,0,0,0,0,0,0,0,0,0,0,0,0,0,0,0,0,0,0,0,0,0,0,0,0,0,0,0,0,0,0,0,0,4.3333,4.3334,0,4.3397,4.3398,4.3399,4.3336,4.3334,4.3332,4.3329,4.3393,4.3397,4.34,0,0,0,0,0,0,0,0,0,0,0,0,0,4.3151,4.3155,4.3333,4.3334,4.3334,4.3397,4.3398,4.3399,4.3337,4.3334,4.3331,4.3328,4.3391,4.3396,4.3401,0,0,0,0,0,0,0,0,0,0,0,0,0,4.3224,4.3156,4.3333,4.3311,4.331,4.3397,4.3398,4.3399,4.3338,4.3334,4.333,4.3327,4.339,4.3396,4.3402,4.3513,0,0,4.342,4.3422,0,0,0,0,0,0,0,0,4.322,4.3231,4.3313,4.3313,4.3311,4.3355,4.3357,4.3437,4.3338,4.3327,4.3329,4.3325,4.3383,4.3389,4.3409,4.3516,4.3518,4.342,4.3424,4.3427,4.3428,0,0,0,0,0,0,0,4.3215,4.3228,4.3358,4.3315,4.3313,4.3297,4.3303,4.3372,4.3375,4.3328,4.3323,4.3332,4.3382,4.3404,4.3411,4.3519,4.342,4.3426,4.3429,4.3432,4.3717,4.372,0,0,0,0,0,0,4.3213,4.3224,4.3356,4.336,4.3256,4.3303,4.331,4.3345,4.3374,4.3375,4.3335,4.3329,4.3395,4.3404,4.3413,4.3542,4.3427,4.3432,4.3436,4.3713,4.3718,4.3722,0,0,0,0,0,0,4.3209,4.3225,4.3354,4.3291,4.3306,4.331,4.335,4.3348,4.337,4.338,4.3379,4.3358,4.3393,4.3404,4.3488,4.3544,4.3435,4.344,4.3708,4.3714,4.372,4.3805,0,0,0,0,0,0,4.3204,4.3225,4.3268,4.3293,4.331,4.3429,4.3353,4.3352,4.3381,4.3373,4.3401,4.3401,4.3391,4.3479,4.3494,4.355,4.3445,4.3703,4.3711,4.3718,4.3797,4.3813,4.3826,0,0,0,0,0,4.3198,4.3289,4.3271,4.3287,4.3364,4.3433,4.3442,4.3429,4.3386,4.3428,4.3434,4.3401,4.3536,4.3488,4.3504,4.3563,4.3699,4.3709,4.3717,4.379,4.381,4.3826,0,0,0,0,0,0,4.3271,4.3292,4.3272,4.3374,4.3402,4.3422,4.3476,4.3451,4.3491,4.3482,4.3463,4.347,4.3558,4.3569,4.3516,4.3671,4.361,4.3623,4.366,4.3679,4.3693,4.3688,4.345,0,0,0,0,0,4.3299,4.3354,4.3369,4.3458,4.3473,4.3472,4.3501,4.3489,4.3517,4.3528,4.354,4.3568,4.3616,4.3648,4.3693,4.3798,4.3802,4.3847,4.3861,4.3873,4.3884,4.3938,4.3957,4.3751,4.3751,4.3751,0,0,4.3357,4.3376,4.3411,4.3473,4.3493,4.3549,4.3483,4.3545,4.3585,4.3537,4.3617,4.3626,4.3656,4.375,4.3792,4.3762,4.3942,4.3885,4.3894,4.3898,4.3949,4.3968,4.3986,4.3757,4.3756,4.3755,0,0,4.3491,4.3512,4.3587,4.3608,4.364,4.3638,4.3656,4.368,4.3685,4.3764,4.3729,4.3776,4.3861,4.3882,4.3904,4.4045,4.4014,4.406,4.4137,4.4189,4.4205,4.422,4.4267,4.4285,4.4071,4.4071,4.4071,0,4.3559,4.3643,4.3628,4.3692,4.3719,4.3679,4.3753,4.3774,4.3819,4.3838,4.3804,4.3907,4.3924,4.4022,4.4056,4.4076,4.4094,4.4056,4.4205,4.4219,4.4232,4.4277,4.4295,4.4076,4.4075,4.4075,4.4074,0,4.3724,4.3782,4.3839,4.3883,4.3916,4.3985,4.3979,4.4014,4.3998,4.4,4.408,4.4099,4.4146,4.4168,4.4154,4.4263,4.4243,4.4208,4.4146,4.4257,4.4299,4.4316,4.4083,4.4082,4.408,4.4079,0,0,4.3906,4.394,4.3961,4.3979,4.401,4.4054,4.412,4.4167,4.4197,4.4229,4.4282,4.4354,4.432,4.4345,4.4332,4.4379,4.4485,4.4336,4.4337,4.4362,4.4605,4.463,4.4651,4.4466,4.4469,4.4472,4.4601,0,4.4039,4.4155,4.4143,4.4252,4.4304,4.4266,4.4323,4.4347,4.4351,4.4394,4.4397,4.4447,4.44,4.4414,4.4459,4.4463,4.4534,4.4454,4.4514,4.4516,4.4506,4.4673,4.4701,4.4822,4.4618,4.4621,4.4623,0,4.4211,4.4248,4.4363,4.4384,4.4406,4.4458,4.4498,4.4541,4.4567,4.4565,4.4593,4.4571,4.4635,4.4574,4.4661,4.4607,4.4631,4.4636,4.464,4.4644,4.4575,4.468,4.4861,4.4878,4.4649,4.4647,4.4645,0,4.4329,4.4409,4.4487,4.4504,4.4531,4.4568,4.4581,4.4604,4.4632,4.4667,4.4684,4.4726,4.4749,4.4781,4.4771,4.4727,4.4859,4.4797,4.4858,4.4858,4.4887,4.4885,4.5073,4.4905,4.4905,4.4905,4.4904,0,4.4479,4.455,4.454,4.4588,4.4666,4.465,4.4727,4.4735,4.4755,4.4803,4.4772,4.4817,4.4801,4.4845,4.4837,4.4909,4.492,4.4919,4.4916,4.4921,4.4921,4.4935,4.4926,4.4909,4.4908,4.4907,4.4907,0,4.4624,4.4621,4.4703,4.4722,4.4728,4.4784,4.4799,4.4843,4.4843,4.4904,4.4917,4.4917,4.4967,4.496,4.5015,4.5009,4.5098,4.5086,4.509,4.5086,4.5147,4.5141,4.5349,4.5375,4.5193,4.5194,4.5196,0,4.4719,4.4773,4.4796,4.4826,4.4842,4.489,4.4919,4.4904,4.4935,4.4967,4.5007,4.5054,4.5091,4.5171,4.5175,4.5217,4.5204,4.5274,4.521,4.5212,4.5202,4.5199,4.5203,4.5286,4.5288,4.529,4.5291,0,4.4887,4.4882,4.4924,4.4966,4.5,4.5032,4.5061,4.5086,4.5075,4.511,4.516,4.5189,4.5245,4.5291,4.5329,4.5341,4.5314,4.5312,4.5327,4.5332,4.5332,4.5331,4.5122,4.5307,4.5305,4.5304,4.5303,4.5302,4.5008,4.5053,4.5077,4.5124,4.5144,4.5171,4.5213,4.5218,4.526,4.5304,4.5293,4.535,4.5372,4.5421,4.5436,4.5479,4.5453,4.5477,4.5483,4.5488,4.5494,4.5326,4.5486,4.5486,4.5486,4.5485,4.5485,0,4.5173,4.5185,4.5229,4.527,4.5307,4.5279,4.5308,4.534,4.5391,4.5414,4.5451,4.5507,4.5551,4.5559,4.56,4.5633,4.5621,4.5644,4.564,4.5643,4.5516,4.5497,4.5652,4.5652,4.5652,4.5652,4.5652,4.5652,4.5263,4.5336,4.5334,4.5417,4.5429,4.5484,4.5503,4.5527,4.5545,4.561,4.5647,4.5651,4.5667,4.5709,4.5748,4.5749,4.5764,4.5792,4.5788,4.5669,4.5652,4.5636,4.5618,4.5796,4.5796,4.591,4.5911,4.5912]}]]